SCP
-0 -0 -0 -0 -0 -0 -0 -0 0 -0 0 0 0 0 0 0 0 0 0 0 0 -0 -0 -0 0 -0 0 -0 -0 -0 0 0 -0 0 -0 0 0 -0 -0 0 -0 0 0
-0 -0 -0 -0 -0 -0 -0 -0 -0 -0 -0 -0 0 0 0 0 0 0 0 0 -0 0 0 0 -0 0 0 -0 0 -0 0 -0 0 0 0 0 0 0 -0 0 0 0 0
-0 -0 -0 -0 -0 -0 -0 0 0 0 0 -0 0 0 0 1 0 0 0 0 0 0 0 0 0 0 0 -0 -0 -0 -0 0 -0 0 0 0 0 -0 0 0 0 0 0
-0 0 -0 -0 -0 -0 -0 -0 0 -0 0 -0 -0 -0 0 0 0 -0 0 0 0 -0 -0 0 0 -0 0 -0 -0 -0 0 0 0 0 0 0 0 0 0 0 0 0 0
-0 -0 -0 -0 -0 -0 -0 -0 -0 0 0 -0 0 0 0 0 0 0 0 0 0 0 0 0 0 -0 -0 -0 -0 0 0 0 0 0 0 0 0 -0 0 0 0 0 0
-0 -0 -0 -0 -0 -0 -0 -0 -0 -0 -0 0 0 0 0 0 0 0 0 0 0 0 -0 0 0 0 -0 -0 -0 -0 -0 -0 -0 0 0 0 0 0 0 0 0 0 0
-0 -0 -0 -0 -0 -0 -0 -0 -0 -0 -0 0 0 -0 0 0 0 0 0 0 0 0 0 0 0 0 0 -0 -0 0 -0 -0 0 0 0 0 -0 0 0 0 0 0 0
-0 -0 0 -0 -0 0 0 -0 -1 -0 -0 0 0 0 0 0 0 0 0 0 -0 0 0 0 0 -0 0 -0 0 0 -0 -0 -0 -0 -0 0 -0 0 0 0 0 0 0
-0 0 -0 0 -0 -0 -0 0 -1 -0 0 0 0 0 0 0 0 0 0 0 0 0 0 -0 -0 -0 0 -0 0 -0 0 0 0 -0 0 0 0 -0 0 0 0 0 0
0 0 0 0 0 -0 -0 -0 -2 -1 0 0 0 0 0 0 0 0 0 0 0 0 -0 -0 0 0 0 0 0 0 0 0 0 0 0 0 0 0 0 -0 0 0 0
0 0 0 0 0 0 0 1 -0 0 0 0 0 0 0 0 0 0 0 0 0 0 0 0 0 0 0 -0 0 -0 0 0 0 -0 0 0 0 0 0 0 0 0 0
0 0 0 0 0 1 1 -0 1 1 1 1 1 1 1 0 0 0 1 1 0 0 0 0 0 0 0 0 0 0 0 0 -0 -0 0 0 -0 0 0 0 0 0 0
0 0 0 0 1 1 1 2 2 2 1 1 1 1 1 1 1 0 1 1 1 1 0 0 0 1 0 0 0 0 0 0 -0 0 0 0 0 0 0 0 0 0 0
1 0 1 1 1 1 2 2 3 3 3 1 0 1 2 1 1 1 1 1 1 1 1 1 1 0 0 0 0 0 0 0 0 0 0 0 0 0 0 0 0 0 0
0 1 1 1 1 1 2 2 2 4 3 2 1 2 2 1 2 1 1 1 1 1 0 1 1 0 1 0 1 0 0 0 0 0 0 0 0 0 0 0 0 0 0
0 0 0 1 2 2 2 2 2 1 1 1 2 3 3 3 3 2 2 1 1 1 1 0 1 1 0 0 0 1 1 1 0 0 0 0 0 0 0 0 0 0 0
1 1 2 1 1 1 1 1 1 1 1 1 2 2 2 2 1 2 3 2 1 1 1 1 1 1 0 0 0 0 1 1 1 1 1 1 0 0 0 0 0 0 0
1 2 2 1 1 1 1 2 1 1 1 1 1 1 1 1 1 1 1 2 2 1 1 1 1 1 0 0 0 0 0 1 1 1 0 1 1 0 0 1 0 0 0
1 1 1 1 1 1 1 1 1 1 1 1 1 1 2 1 1 1 1 3 1 1 1 1 0 1 0 0 0 0 1 1 1 0 0 0 0 0 0 0 0 0 0
1 1 1 1 1 1 1 1 1 1 1 1 1 0 1 1 1 1 1 2 1 0 0 0 0 0 0 0 0 0 1 0 0 0 0 0 0 0 0 0 0 0 0
1 0 0 0 0 0 0 0 0 0 0 0 0 0 0 0 0 0 0 0 0 0 0 0 0 0 0 0 0 0 0 0 0 0 0 0 0 0 0 0 0 0 0
0 0 0 0 0 0 0 0 0 0 0 0 0 0 0 0 0 0 0 0 0 0 0 0 0 0 0 0 0 0 0 0 0 0 0 0 0 0 0 0 0 0 0
1 1 1 0 0 0 0 0 0 0 0 0 0 0 0 0 0 0 0 0 0 0 0 0 0 0 0 0 0 0 0 0 0 0 0 0 0 0 0 0 0 0 0
0 0 0 0 0 0 0 0 -0 -0 -0 0 0 0 0 0 0 0 0 0 0 0 0 0 0 0 0 0 0 0 0 0 0 0 0 0 0 0 0 0 0 0 0
0 0 0 0 0 0 0 0 -0 -0 -0 -0 -0 0 -0 0 0 0 0 0 0 0 0 0 0 0 0 0 -0 0 -0 0 -0 -0 0 0 0 0 0 0 0 0 -0
0 0 0 0 0 0 -0 -0 -0 -0 -0 0 -0 -0 0 -0 -0 0 0 0 0 0 -0 0 0 0 0 -0 -0 -0 -0 0 -0 0 0 0 0 0 0 0 0 0 0
Wind_Speed_500mb
35 32 38 44 52 45 42 39 47 43 35 28 25 19 15 12 17 25 19 19 17 21 22 11 24 19 8 13 16 11 20 18 12 8 23 11 10 6 6 8 22 19 8
39 41 38 37 38 46 51 42 44 43 39 30 27 20 25 22 26 23 22 13 16 17 13 12 9 15 10 21 13 10 13 5 10 13 28 7 4 6 6 4 5 12 8
48 45 46 43 40 41 51 58 41 45 43 33 24 30 11 19 16 23 16 16 19 14 15 13 18 11 12 14 5 7 7 7 7 11 8 14 2 23 3 8 8 15 12
49 38 50 48 47 41 40 47 52 43 46 39 32 23 20 25 18 26 22 21 14 16 17 7 17 11 9 6 13 11 10 2 9 11 5 10 10 14 13 18 6 15 9
56 56 45 54 57 55 49 47 47 46 41 45 31 30 31 25 19 7 18 22 14 18 13 10 5 13 24 15 11 1 9 10 6 11 5 5 14 9 15 15 5 2 4
38 53 50 41 58 59 54 50 45 46 43 39 40 34 30 22 24 24 19 14 23 12 19 14 6 12 12 18 8 11 5 3 4 6 9 17 15 16 8 6 4 2 17
47 40 58 63 52 60 53 52 49 46 44 50 41 44 41 36 33 29 19 20 22 27 23 17 7 4 14 7 14 14 11 2 6 5 9 6 17 16 16 6 8 2 4
43 46 42 66 60 55 54 46 58 48 42 45 44 37 42 35 33 34 28 26 32 19 25 20 12 16 9 9 14 10 8 18 5 4 3 8 2 17 8 3 4 4 2
32 29 42 39 58 53 51 65 68 50 35 42 43 42 39 36 30 27 25 21 24 18 16 21 26 19 17 15 15 11 9 12 10 2 4 5 22 7 6 10 1 7 12
4 27 30 31 50 53 54 66 66 55 39 40 43 45 43 40 42 35 33 27 25 26 22 26 26 27 21 18 26 24 15 21 8 4 7 3 5 8 12 16 19 9 10
19 10 9 33 37 35 56 67 63 55 45 42 44 42 41 36 40 38 30 35 29 23 26 26 28 22 21 16 21 21 19 17 16 12 8 1 8 10 12 7 9 8 19
11 7 8 15 22 33 49 48 62 52 51 48 51 48 43 38 39 35 38 34 36 32 32 34 35 30 23 20 27 25 12 18 15 11 10 7 10 21 8 10 13 16 16
8 10 10 15 18 27 33 46 54 58 54 55 55 55 48 43 40 42 35 38 36 35 33 35 33 28 30 30 28 17 15 10 15 15 16 20 13 23 19 21 15 15 11
4 10 8 12 16 23 27 49 50 59 58 59 59 61 60 52 46 44 40 39 45 38 39 35 30 30 27 23 24 25 19 22 18 16 16 17 22 32 23 21 25 20 27
18 15 10 8 17 19 26 38 52 60 64 67 64 69 68 66 53 47 47 42 42 39 35 35 35 28 31 26 28 27 25 27 23 22 16 25 30 27 28 27 21 25 24
19 20 19 14 12 19 26 33 44 52 58 65 79 64 62 66 59 61 56 49 44 42 38 40 39 38 29 33 34 33 26 21 19 22 27 31 23 23 27 25 23 20 17
21 13 4 7 11 20 19 28 37 42 49 58 77 71 61 61 66 67 62 57 51 44 44 39 38 37 40 40 37 33 33 32 32 27 24 22 19 16 13 16 20 22 23
1 10 8 5 15 17 23 26 29 34 41 49 70 77 69 68 68 64 61 51 51 52 44 40 36 35 40 43 40 38 36 34 28 25 23 14 16 13 12 11 20 18 16
12 10 7 2 10 12 14 24 26 27 30 38 47 51 68 70 67 63 57 57 50 45 47 44 34 36 33 29 30 29 30 28 30 30 17 16 16 11 14 18 20 14 14
18 14 8 7 15 13 18 19 15 9 10 17 30 38 44 50 53 58 63 56 57 54 44 34 39 39 33 29 31 33 29 26 29 25 17 14 15 11 10 17 19 16 15
15 17 15 13 16 8 5 7 11 13 15 19 22 25 30 42 50 53 56 55 50 41 38 37 36 34 34 34 34 34 34 34 31 21 14 15 17 19 21 21 24 24 21
27 22 21 24 31 33 26 25 14 7 2 16 24 32 32 35 32 18 24 30 30 28 23 22 22 24 27 27 29 34 40 36 28 19 14 11 10 9 7 6 6 4 3
26 23 25 25 21 23 25 17 22 21 25 26 6 24 21 20 32 37 27 29 28 26 25 22 16 11 15 20 16 15 18 17 12 10 8 9 9 8 7 6 6 8 10
30 20 18 22 22 8 8 11 17 19 23 35 48 50 39 46 42 28 29 34 30 26 26 27 21 21 19 22 20 16 13 13 12 12 12 11 9 7 5 4 4 10 14
28 20 23 22 18 7 6 7 14 16 16 21 26 34 43 46 40 35 38 32 33 32 27 25 21 18 19 21 17 16 18 19 20 18 19 18 19 19 22 24 24 23 24
22 20 22 20 17 11 12 6 6 11 17 25 25 25 28 36 36 32 27 28 25 23 19 19 19 18 16 17 19 24 32 36 35 33 29 28 26 22 22 21 19 20 17
Wind_Direction_500mb
144 154 153 161 165 168 173 183 177 190 187 174 163 156 181 171 163 204 217 244 218 254 236 218 273 267 257 291 309 339 351 19 3 89 227 296 256 211 201 336 28 84 119
183 161 159 165 172 178 167 181 188 194 187 178 175 223 218 216 205 219 224 233 218 225 233 235 257 286 257 307 315 307 328 314 77 97 73 28 3 358 84 204 268 153 140
172 173 168 170 170 170 182 185 186 189 185 170 195 211 215 202 218 171 219 213 228 223 246 248 193 242 246 272 301 287 306 326 33 14 348 177 128 28 120 156 210 109 136
183 172 177 176 179 183 192 181 181 196 180 182 188 216 206 211 233 213 224 202 218 204 262 247 204 200 173 230 246 199 279 167 70 62 174 37 51 106 198 148 28 75 129
181 180 201 185 184 184 188 198 195 198 194 190 186 204 210 208 209 214 217 194 243 212 225 253 203 175 192 191 287 14 216 192 191 18 77 12 16 111 86 83 110 332 81
194 182 204 201 186 185 186 196 212 211 198 208 199 200 207 207 204 222 192 241 244 273 215 250 190 194 231 202 247 262 205 257 285 134 103 2 20 78 34 46 36 315 159
193 205 198 186 200 185 183 193 212 219 211 207 213 207 210 210 214 226 206 229 237 220 237 228 240 200 225 199 253 278 283 295 347 180 85 82 37 336 357 140 21 358 142
195 200 210 191 190 180 168 187 208 218 217 208 212 215 214 215 220 212 210 234 238 242 222 233 249 214 210 229 262 262 310 323 248 342 249 281 332 352 306 102 225 301 225
178 204 201 204 190 203 211 191 208 214 214 210 207 213 217 206 219 233 219 240 241 202 237 232 229 218 231 230 252 252 252 283 317 220 350 14 322 212 8 329 181 280 252
167 186 206 221 211 190 189 194 206 211 217 212 213 214 220 215 210 216 220 201 215 202 213 217 236 219 210 228 250 265 250 260 259 244 325 232 276 270 349 251 317 275 341
150 189 221 206 219 217 203 203 202 203 211 214 209 212 219 225 219 221 226 220 203 197 192 198 222 226 225 249 266 276 261 321 294 264 278 302 320 241 250 280 288 293 300
116 172 223 225 233 228 227 226 199 205 216 222 201 214 217 219 221 222 228 245 226 221 218 211 223 230 215 228 251 282 257 291 294 311 304 302 306 290 288 292 279 276 290
185 225 216 232 243 239 244 210 209 206 211 216 207 209 217 215 221 222 224 234 235 233 225 227 232 233 225 240 253 267 243 228 244 253 277 297 295 285 279 272 262 259 265
278 270 268 263 242 234 236 212 211 205 205 211 212 213 218 218 215 217 225 225 237 234 230 230 229 230 231 235 238 262 256 218 234 258 271 286 275 274 275 272 261 270 255
252 246 258 256 222 234 228 220 224 220 219 212 212 217 221 223 218 211 219 221 227 236 234 226 232 231 234 229 250 246 263 262 259 243 261 268 274 277 269 276 269 257 266
247 243 236 223 261 240 218 232 231 235 233 226 220 219 224 216 216 214 217 224 223 225 228 227 226 228 214 233 239 249 254 258 271 268 261 270 266 262 259 258 257 258 265
233 226 161 242 266 260 259 240 239 243 236 228 222 219 222 223 225 216 215 220 226 232 233 230 230 228 223 227 233 239 252 261 262 266 266 259 267 260 252 246 245 248 256
63 142 120 233 253 252 251 245 240 242 244 237 232 231 227 226 229 220 219 222 228 231 231 231 229 226 229 233 237 246 254 256 250 244 245 238 235 236 226 225 245 253 252
93 108 120 279 275 251 259 244 243 244 247 243 238 237 229 226 223 226 220 217 231 235 230 226 232 233 239 237 237 238 236 239 235 242 243 233 243 252 237 222 257 263 261
124 108 108 178 246 247 251 228 222 204 221 229 229 229 219 217 221 225 224 228 224 224 226 231 234 247 249 246 244 243 231 221 227 234 216 232 251 252 218 220 253 268 277
148 126 113 87 65 125 256 209 219 245 240 220 215 220 222 225 212 205 194 198 207 219 225 229 234 241 249 255 251 250 232 200 206 230 260 247 253 259 256 251 256 271 272
152 144 122 108 99 90 83 79 81 82 234 247 239 233 231 230 241 238 175 181 188 198 206 219 229 234 241 233 219 214 211 218 232 233 240 240 236 239 236 233 237 237 260
157 164 139 130 117 94 70 90 99 78 77 65 98 211 211 228 218 217 203 189 192 192 189 192 202 206 184 187 193 192 185 179 172 174 182 202 210 220 233 240 257 263 276
162 132 150 152 158 128 56 65 147 112 79 77 91 96 97 92 99 107 129 139 137 141 149 144 136 130 133 132 126 128 129 135 149 163 166 179 199 208 199 180 139 129 124
161 161 138 148 148 126 356 45 112 168 171 99 112 111 104 96 94 97 105 107 105 108 112 113 119 119 126 130 132 137 135 130 114 109 108 104 104 108 113 114 114 115 115
138 137 134 116 106 130 128 128 119 109 126 159 136 119 123 125 122 117 124 129 131 127 120 112 117 131 141 140 140 127 127 119 115 104 96 96 97 101 106 102 106 104 93
Wind_Speed_850mb
35 32 38 44 52 45 42 39 47 43 35 28 25 19 15 12 17 25 19 19 17 21 22 11 24 19 8 13 16 11 20 18 12 8 23 11 10 6 6 8 22 19 8
39 41 38 37 38 46 51 42 44 43 39 30 27 20 25 22 26 23 22 13 16 17 13 12 9 15 10 21 13 10 13 5 10 13 28 7 4 6 6 4 5 12 8
48 45 46 43 40 41 51 58 41 45 43 33 24 30 11 19 16 23 16 16 19 14 15 13 18 11 12 14 5 7 7 7 7 11 8 14 2 23 3 8 8 15 12
49 38 50 48 47 41 40 47 52 43 46 39 32 23 20 25 18 26 22 21 14 16 17 7 17 11 9 6 13 11 10 2 9 11 5 10 10 14 13 18 6 15 9
56 56 45 54 57 55 49 47 47 46 41 45 31 30 31 25 19 7 18 22 14 18 13 10 5 13 24 15 11 1 9 10 6 11 5 5 14 9 15 15 5 2 4
38 53 50 41 58 59 54 50 45 46 43 39 40 34 30 22 24 24 19 14 23 12 19 14 6 12 12 18 8 11 5 3 4 6 9 17 15 16 8 6 4 2 17
47 40 58 63 52 60 53 52 49 46 44 50 41 44 41 36 33 29 19 20 22 27 23 17 7 4 14 7 14 14 11 2 6 5 9 6 17 16 16 6 8 2 4
43 46 42 66 60 55 54 46 58 48 42 45 44 37 42 35 33 34 28 26 32 19 25 20 12 16 9 9 14 10 8 18 5 4 3 8 2 17 8 3 4 4 2
32 29 42 39 58 53 51 65 68 50 35 42 43 42 39 36 30 27 25 21 24 18 16 21 26 19 17 15 15 11 9 12 10 2 4 5 22 7 6 10 1 7 12
4 27 30 31 50 53 54 66 66 55 39 40 43 45 43 40 42 35 33 27 25 26 22 26 26 27 21 18 26 24 15 21 8 4 7 3 5 8 12 16 19 9 10
19 10 9 33 37 35 56 67 63 55 45 42 44 42 41 36 40 38 30 35 29 23 26 26 28 22 21 16 21 21 19 17 16 12 8 1 8 10 12 7 9 8 19
11 7 8 15 22 33 49 48 62 52 51 48 51 48 43 38 39 35 38 34 36 32 32 34 35 30 23 20 27 25 12 18 15 11 10 7 10 21 8 10 13 16 16
8 10 10 15 18 27 33 46 54 58 54 55 55 55 48 43 40 42 35 38 36 35 33 35 33 28 30 30 28 17 15 10 15 15 16 20 13 23 19 21 15 15 11
4 10 8 12 16 23 27 49 50 59 58 59 59 61 60 52 46 44 40 39 45 38 39 35 30 30 27 23 24 25 19 22 18 16 16 17 22 32 23 21 25 20 27
18 15 10 8 17 19 26 38 52 60 64 67 64 69 68 66 53 47 47 42 42 39 35 35 35 28 31 26 28 27 25 27 23 22 16 25 30 27 28 27 21 25 24
19 20 19 14 12 19 26 33 44 52 58 65 79 64 62 66 59 61 56 49 44 42 38 40 39 38 29 33 34 33 26 21 19 22 27 31 23 23 27 25 23 20 17
21 13 4 7 11 20 19 28 37 42 49 58 77 71 61 61 66 67 62 57 51 44 44 39 38 37 40 40 37 33 33 32 32 27 24 22 19 16 13 16 20 22 23
1 10 8 5 15 17 23 26 29 34 41 49 70 77 69 68 68 64 61 51 51 52 44 40 36 35 40 43 40 38 36 34 28 25 23 14 16 13 12 11 20 18 16
12 10 7 2 10 12 14 24 26 27 30 38 47 51 68 70 67 63 57 57 50 45 47 44 34 36 33 29 30 29 30 28 30 30 17 16 16 11 14 18 20 14 14
18 14 8 7 15 13 18 19 15 9 10 17 30 38 44 50 53 58 63 56 57 54 44 34 39 39 33 29 31 33 29 26 29 25 17 14 15 11 10 17 19 16 15
15 17 15 13 16 8 5 7 11 13 15 19 22 25 30 42 50 53 56 55 50 41 38 37 36 34 34 34 34 34 34 34 31 21 14 15 17 19 21 21 24 24 21
27 22 21 24 31 33 26 25 14 7 2 16 24 32 32 35 32 18 24 30 30 28 23 22 22 24 27 27 29 34 40 36 28 19 14 11 10 9 7 6 6 4 3
26 23 25 25 21 23 25 17 22 21 25 26 6 24 21 20 32 37 27 29 28 26 25 22 16 11 15 20 16 15 18 17 12 10 8 9 9 8 7 6 6 8 10
30 20 18 22 22 8 8 11 17 19 23 35 48 50 39 46 42 28 29 34 30 26 26 27 21 21 19 22 20 16 13 13 12 12 12 11 9 7 5 4 4 10 14
28 20 23 22 18 7 6 7 14 16 16 21 26 34 43 46 40 35 38 32 33 32 27 25 21 18 19 21 17 16 18 19 20 18 19 18 19 19 22 24 24 23 24
22 20 22 20 17 11 12 6 6 11 17 25 25 25 28 36 36 32 27 28 25 23 19 19 19 18 16 17 19 24 32 36 35 33 29 28 26 22 22 21 19 20 17
Wind_Direction_850mb
144 154 153 161 165 168 173 183 177 190 187 174 163 156 181 171 163 204 217 244 218 254 236 218 273 267 257 291 309 339 351 19 3 89 227 296 256 211 201 336 28 84 119
183 161 159 165 172 178 167 181 188 194 187 178 175 223 218 216 205 219 224 233 218 225 233 235 257 286 257 307 315 307 328 314 77 97 73 28 3 358 84 204 268 153 140
172 173 168 170 170 170 182 185 186 189 185 170 195 211 215 202 218 171 219 213 228 223 246 248 193 242 246 272 301 287 306 326 33 14 348 177 128 28 120 156 210 109 136
183 172 177 176 179 183 192 181 181 196 180 182 188 216 206 211 233 213 224 202 218 204 262 247 204 200 173 230 246 199 279 167 70 62 174 37 51 106 198 148 28 75 129
181 180 201 185 184 184 188 198 195 198 194 190 186 204 210 208 209 214 217 194 243 212 225 253 203 175 192 191 287 14 216 192 191 18 77 12 16 111 86 83 110 332 81
194 182 204 201 186 185 186 196 212 211 198 208 199 200 207 207 204 222 192 241 244 273 215 250 190 194 231 202 247 262 205 257 285 134 103 2 20 78 34 46 36 315 159
193 205 198 186 200 185 183 193 212 219 211 207 213 207 210 210 214 226 206 229 237 220 237 228 240 200 225 199 253 278 283 295 347 180 85 82 37 336 357 140 21 358 142
195 200 210 191 190 180 168 187 208 218 217 208 212 215 214 215 220 212 210 234 238 242 222 233 249 214 210 229 262 262 310 323 248 342 249 281 332 352 306 102 225 301 225
178 204 201 204 190 203 211 191 208 214 214 210 207 213 217 206 219 233 219 240 241 202 237 232 229 218 231 230 252 252 252 283 317 220 350 14 322 212 8 329 181 280 252
167 186 206 221 211 190 189 194 206 211 217 212 213 214 220 215 210 216 220 201 215 202 213 217 236 219 210 228 250 265 250 260 259 244 325 232 276 270 349 251 317 275 341
150 189 221 206 219 217 203 203 202 203 211 214 209 212 219 225 219 221 226 220 203 197 192 198 222 226 225 249 266 276 261 321 294 264 278 302 320 241 250 280 288 293 300
116 172 223 225 233 228 227 226 199 205 216 222 201 214 217 219 221 222 228 245 226 221 218 211 223 230 215 228 251 282 257 291 294 311 304 302 306 290 288 292 279 276 290
185 225 216 232 243 239 244 210 209 206 211 216 207 209 217 215 221 222 224 234 235 233 225 227 232 233 225 240 253 267 243 228 244 253 277 297 295 285 279 272 262 259 265
278 270 268 263 242 234 236 212 211 205 205 211 212 213 218 218 215 217 225 225 237 234 230 230 229 230 231 235 238 262 256 218 234 258 271 286 275 274 275 272 261 270 255
252 246 258 256 222 234 228 220 224 220 219 212 212 217 221 223 218 211 219 221 227 236 234 226 232 231 234 229 250 246 263 262 259 243 261 268 274 277 269 276 269 257 266
247 243 236 223 261 240 218 232 231 235 233 226 220 219 224 216 216 214 217 224 223 225 228 227 226 228 214 233 239 249 254 258 271 268 261 270 266 262 259 258 257 258 265
233 226 161 242 266 260 259 240 239 243 236 228 222 219 222 223 225 216 215 220 226 232 233 230 230 228 223 227 233 239 252 261 262 266 266 259 267 260 252 246 245 248 256
63 142 120 233 253 252 251 245 240 242 244 237 232 231 227 226 229 220 219 222 228 231 231 231 229 226 229 233 237 246 254 256 250 244 245 238 235 236 226 225 245 253 252
93 108 120 279 275 251 259 244 243 244 247 243 238 237 229 226 223 226 220 217 231 235 230 226 232 233 239 237 237 238 236 239 235 242 243 233 243 252 237 222 257 263 261
124 108 108 178 246 247 251 228 222 204 221 229 229 229 219 217 221 225 224 228 224 224 226 231 234 247 249 246 244 243 231 221 227 234 216 232 251 252 218 220 253 268 277
148 126 113 87 65 125 256 209 219 245 240 220 215 220 222 225 212 205 194 198 207 219 225 229 234 241 249 255 251 250 232 200 206 230 260 247 253 259 256 251 256 271 272
152 144 122 108 99 90 83 79 81 82 234 247 239 233 231 230 241 238 175 181 188 198 206 219 229 234 241 233 219 214 211 218 232 233 240 240 236 239 236 233 237 237 260
157 164 139 130 117 94 70 90 99 78 77 65 98 211 211 228 218 217 203 189 192 192 189 192 202 206 184 187 193 192 185 179 172 174 182 202 210 220 233 240 257 263 276
162 132 150 152 158 128 56 65 147 112 79 77 91 96 97 92 99 107 129 139 137 141 149 144 136 130 133 132 126 128 129 135 149 163 166 179 199 208 199 180 139 129 124
161 161 138 148 148 126 356 45 112 168 171 99 112 111 104 96 94 97 105 107 105 108 112 113 119 119 126 130 132 137 135 130 114 109 108 104 104 108 113 114 114 115 115
138 137 134 116 106 130 128 128 119 109 126 159 136 119 123 125 122 117 124 129 131 127 120 112 117 131 141 140 140 127 127 119 115 104 96 96 97 101 106 102 106 104 93